Time,TemperatureF,DewpointF,PressureIn,WindDirection,WindDirectionDegrees,WindSpeedMPH,WindSpeedGustMPH,Humidity,HourlyPrecipIn,Conditions,Clouds,dailyrainin,SoftwareType,DateUTC
2013-09-13 00:00:00,61.1,58.5,29.99,WNW,291,5.0,5.0,91,0.00,,,0.00,Wunderground v.1.15,2013-09-13 04:00:00,
2013-09-13 00:05:00,61.0,58.4,29.99,WNW,293,5.0,5.0,91,0.00,,,0.00,Wunderground v.1.15,2013-09-13 04:05:00,
2013-09-13 00:10:00,60.9,58.3,29.98,West,275,4.0,4.0,91,0.00,,,0.00,Wunderground v.1.15,2013-09-13 04:10:00,
2013-09-13 00:15:00,60.8,58.2,29.98,WNW,296,5.0,5.0,91,0.00,,,0.00,Wunderground v.1.15,2013-09-13 04:15:00,
2013-09-13 00:20:00,60.7,57.7,29.98,WNW,289,6.0,6.0,90,0.00,,,0.00,Wunderground v.1.15,2013-09-13 04:20:00,
2013-09-13 00:25:00,60.6,57.7,29.98,West,268,5.0,6.0,90,0.00,,,0.00,Wunderground v.1.15,2013-09-13 04:25:00,
2013-09-13 00:30:00,60.5,57.6,29.98,West,273,4.0,4.0,90,0.00,,,0.00,Wunderground v.1.15,2013-09-13 04:30:00,
2013-09-13 00:35:00,60.3,57.4,29.98,West,270,3.0,4.0,90,0.00,,,0.00,Wunderground v.1.15,2013-09-13 04:35:00,
2013-09-13 00:40:00,60.2,57.6,29.98,West,269,4.0,4.0,91,0.00,,,0.00,Wunderground v.1.15,2013-09-13 04:40:00,
2013-09-13 00:45:00,60.0,57.4,29.98,West,263,4.0,4.0,91,0.00,,,0.00,Wunderground v.1.15,2013-09-13 04:45:00,
2013-09-13 00:50:00,59.9,57.3,29.97,West,265,3.0,5.0,91,0.00,,,0.00,Wunderground v.1.15,2013-09-13 04:50:00,
2013-09-13 00:55:00,59.7,57.1,29.98,West,277,3.0,5.0,91,0.00,,,0.00,Wunderground v.1.15,2013-09-13 04:55:00,
2013-09-13 01:00:00,59.6,57.0,29.97,WSW,248,4.0,7.0,91,0.00,,,0.00,Wunderground v.1.15,2013-09-13 05:00:00,
2013-09-13 01:05:00,59.4,56.8,29.98,WSW,255,4.0,13.0,91,0.00,,,0.00,Wunderground v.1.15,2013-09-13 05:05:00,
2013-09-13 01:10:00,59.3,56.7,29.98,WNW,282,4.0,13.0,91,0.00,,,0.00,Wunderground v.1.15,2013-09-13 05:10:00,
2013-09-13 01:15:00,59.2,56.6,29.98,WNW,290,5.0,13.0,91,0.00,,,0.00,Wunderground v.1.15,2013-09-13 05:15:00,
2013-09-13 01:20:00,59.1,56.5,29.98,WNW,289,5.0,5.0,91,0.00,,,0.00,Wunderground v.1.15,2013-09-13 05:20:00,
2013-09-13 01:25:00,59.1,56.5,29.98,West,267,5.0,6.0,91,0.00,,,0.00,Wunderground v.1.15,2013-09-13 05:25:00,
2013-09-13 01:35:00,59.0,56.4,29.98,WNW,284,4.0,13.0,91,0.00,,,0.00,Wunderground v.1.15,2013-09-13 05:35:00,
2013-09-13 01:40:00,59.0,56.4,29.98,WNW,282,5.0,13.0,91,0.00,,,0.00,Wunderground v.1.15,2013-09-13 05:40:00,
2013-09-13 01:45:00,59.1,56.8,29.98,WNW,294,5.0,13.0,92,0.00,,,0.00,Wunderground v.1.15,2013-09-13 05:45:00,
2013-09-13 01:50:00,59.1,56.5,29.98,WNW,291,5.0,5.0,91,0.00,,,0.00,Wunderground v.1.15,2013-09-13 05:50:00,
2013-09-13 01:55:00,59.1,56.5,29.99,West,259,4.0,13.0,91,0.00,,,0.00,Wunderground v.1.15,2013-09-13 05:55:00,
2013-09-13 02:00:00,59.1,56.5,29.99,NW,314,5.0,5.0,91,0.00,,,0.00,Wunderground v.1.15,2013-09-13 06:00:00,
2013-09-13 02:10:00,59.2,56.9,29.99,WNW,296,4.0,13.0,92,0.00,,,0.00,Wunderground v.1.15,2013-09-13 06:10:00,
2013-09-13 02:15:00,59.3,57.0,29.99,WNW,283,5.0,13.0,92,0.00,,,0.00,Wunderground v.1.15,2013-09-13 06:15:00,
2013-09-13 02:20:00,59.3,57.0,29.99,West,263,5.0,13.0,92,0.00,,,0.00,Wunderground v.1.15,2013-09-13 06:20:00,
2013-09-13 02:25:00,59.3,57.0,29.99,WNW,288,6.0,13.0,92,0.00,,,0.00,Wunderground v.1.15,2013-09-13 06:25:00,
2013-09-13 02:30:00,59.3,57.0,29.98,West,280,5.0,13.0,92,0.00,,,0.00,Wunderground v.1.15,2013-09-13 06:30:00,
2013-09-13 02:40:00,59.2,56.9,29.98,WNW,299,5.0,13.0,92,0.00,,,0.00,Wunderground v.1.15,2013-09-13 06:40:00,
2013-09-13 02:45:00,59.1,57.1,29.98,WNW,302,6.0,13.0,93,0.00,,,0.00,Wunderground v.1.15,2013-09-13 06:45:00,
2013-09-13 02:50:00,59.1,57.1,29.98,NW,320,7.0,7.0,93,0.00,,,0.00,Wunderground v.1.15,2013-09-13 06:50:00,
2013-09-13 02:55:00,59.1,57.1,29.98,NW,317,6.0,13.0,93,0.00,,,0.00,Wunderground v.1.15,2013-09-13 06:55:00,
2013-09-13 03:00:00,59.0,57.3,29.98,NW,309,5.0,13.0,94,0.00,,,0.00,Wunderground v.1.15,2013-09-13 07:00:00,
2013-09-13 03:05:00,59.0,57.3,29.98,WNW,302,5.0,13.0,94,0.00,,,0.00,Wunderground v.1.15,2013-09-13 07:05:00,
2013-09-13 03:10:00,59.0,57.3,29.98,WNW,298,5.0,5.0,94,0.00,,,0.00,Wunderground v.1.15,2013-09-13 07:10:00,
2013-09-13 03:15:00,59.0,57.6,29.98,NNW,327,5.0,9.0,95,0.00,,,0.00,Wunderground v.1.15,2013-09-13 07:15:00,
2013-09-13 03:20:00,59.0,57.6,29.98,NW,317,6.0,13.0,95,0.00,,,0.00,Wunderground v.1.15,2013-09-13 07:20:00,
2013-09-13 03:25:00,59.1,57.7,29.98,WNW,302,6.0,13.0,95,0.00,,,0.00,Wunderground v.1.15,2013-09-13 07:25:00,
2013-09-13 03:30:00,59.0,57.6,29.99,NW,325,5.0,13.0,95,0.00,,,0.00,Wunderground v.1.15,2013-09-13 07:30:00,
2013-09-13 03:35:00,59.1,57.7,29.99,WNW,295,6.0,13.0,95,0.00,,,0.00,Wunderground v.1.15,2013-09-13 07:35:00,
2013-09-13 03:45:00,59.0,57.6,29.99,NNW,338,5.0,13.0,95,0.00,,,0.00,Wunderground v.1.15,2013-09-13 07:45:00,
2013-09-13 03:50:00,59.1,58.0,29.99,NW,322,5.0,5.0,96,0.00,,,0.00,Wunderground v.1.15,2013-09-13 07:50:00,
2013-09-13 03:55:00,59.0,57.6,29.99,NW,325,5.0,6.0,95,0.00,,,0.00,Wunderground v.1.15,2013-09-13 07:55:00,
2013-09-13 04:00:00,58.9,57.5,29.99,NW,325,5.0,13.0,95,0.00,,,0.00,Wunderground v.1.15,2013-09-13 08:00:00,
2013-09-13 04:05:00,58.9,57.5,29.99,WNW,302,6.0,13.0,95,0.00,,,0.00,Wunderground v.1.15,2013-09-13 08:05:00,
2013-09-13 04:15:00,58.8,57.4,29.99,NW,321,5.0,13.0,95,0.00,,,0.00,Wunderground v.1.15,2013-09-13 08:15:00,
2013-09-13 04:20:00,58.7,57.3,29.99,NNW,328,5.0,13.0,95,0.00,,,0.00,Wunderground v.1.15,2013-09-13 08:20:00,
2013-09-13 04:25:00,58.7,57.3,29.99,NW,322,5.0,13.0,95,0.00,,,0.00,Wunderground v.1.15,2013-09-13 08:25:00,
2013-09-13 04:30:00,58.5,56.8,30.00,NNW,333,5.0,5.0,94,0.00,,,0.00,Wunderground v.1.15,2013-09-13 08:30:00,
2013-09-13 04:35:00,58.5,56.8,30.00,NW,322,5.0,13.0,94,0.00,,,0.00,Wunderground v.1.15,2013-09-13 08:35:00,
2013-09-13 04:40:00,58.4,56.7,30.00,NNW,327,4.0,13.0,94,0.00,,,0.00,Wunderground v.1.15,2013-09-13 08:40:00,
2013-09-13 04:50:00,58.4,56.7,30.00,NW,304,4.0,13.0,94,0.00,,,0.00,Wunderground v.1.15,2013-09-13 08:50:00,
2013-09-13 04:55:00,58.3,56.6,30.00,NW,318,5.0,13.0,94,0.00,,,0.00,Wunderground v.1.15,2013-09-13 08:55:00,
2013-09-13 05:00:00,58.3,56.6,30.00,NNW,329,5.0,5.0,94,0.00,,,0.00,Wunderground v.1.15,2013-09-13 09:00:00,
2013-09-13 05:05:00,58.3,56.6,30.00,NNW,328,5.0,13.0,94,0.00,,,0.00,Wunderground v.1.15,2013-09-13 09:05:00,
2013-09-13 05:10:00,58.3,56.6,30.00,NNW,341,5.0,5.0,94,0.00,,,0.00,Wunderground v.1.15,2013-09-13 09:10:00,
2013-09-13 05:20:00,58.2,56.5,30.00,North,5,4.0,4.0,94,0.00,,,0.00,Wunderground v.1.15,2013-09-13 09:20:00,
2013-09-13 05:25:00,58.2,56.5,30.00,NW,310,4.0,5.0,94,0.00,,,0.00,Wunderground v.1.15,2013-09-13 09:25:00,
2013-09-13 05:30:00,58.0,56.3,30.00,NNW,335,5.0,5.0,94,0.00,,,0.00,Wunderground v.1.15,2013-09-13 09:30:00,
2013-09-13 05:35:00,58.1,56.4,30.00,NNW,333,5.0,8.0,94,0.00,,,0.00,Wunderground v.1.15,2013-09-13 09:35:00,
2013-09-13 05:40:00,58.0,56.3,29.99,NW,317,5.0,13.0,94,0.00,,,0.00,Wunderground v.1.15,2013-09-13 09:40:00,
2013-09-13 05:45:00,57.9,55.9,30.00,NNW,340,6.0,13.0,93,0.00,,,0.00,Wunderground v.1.15,2013-09-13 09:45:00,
2013-09-13 05:55:00,57.7,56.0,30.00,NW,318,4.0,6.0,94,0.00,,,0.00,Wunderground v.1.15,2013-09-13 09:55:00,
2013-09-13 06:00:00,57.4,55.4,30.01,NNW,333,5.0,5.0,93,0.00,,,0.00,Wunderground v.1.15,2013-09-13 10:00:00,
2013-09-13 06:10:00,57.1,55.4,30.01,North,350,5.0,5.0,94,0.00,,,0.00,Wunderground v.1.15,2013-09-13 10:10:00,
2013-09-13 06:15:00,57.3,55.6,30.02,NNW,334,4.0,5.0,94,0.00,,,0.00,Wunderground v.1.15,2013-09-13 10:15:00,
2013-09-13 06:20:00,57.2,55.5,30.01,NNW,344,4.0,6.0,94,0.00,,,0.00,Wunderground v.1.15,2013-09-13 10:20:00,
2013-09-13 06:25:00,57.2,55.5,30.01,North,360,5.0,7.0,94,0.00,,,0.00,Wunderground v.1.15,2013-09-13 10:25:00,
2013-09-13 06:30:00,56.9,54.9,30.01,NW,321,5.0,5.0,93,0.00,,,0.00,Wunderground v.1.15,2013-09-13 10:30:00,
2013-09-13 06:35:00,56.6,54.9,30.02,NNW,338,5.0,5.0,94,0.00,,,0.00,Wunderground v.1.15,2013-09-13 10:35:00,
2013-09-13 06:40:00,56.3,54.6,30.02,NNW,342,5.0,5.0,94,0.00,,,0.00,Wunderground v.1.15,2013-09-13 10:40:00,
2013-09-13 06:45:00,56.2,54.5,30.02,NNW,339,6.0,6.0,94,0.00,,,0.00,Wunderground v.1.15,2013-09-13 10:45:00,
2013-09-13 06:55:00,56.2,54.5,30.02,NNW,340,5.0,6.0,94,0.00,,,0.00,Wunderground v.1.15,2013-09-13 10:55:00,
2013-09-13 07:00:00,56.0,54.3,30.02,NW,325,5.0,5.0,94,0.00,,,0.00,Wunderground v.1.15,2013-09-13 11:00:00,
2013-09-13 07:05:00,55.9,54.2,30.03,NW,315,6.0,6.0,94,0.00,,,0.00,Wunderground v.1.15,2013-09-13 11:05:00,
2013-09-13 07:10:00,55.9,54.2,30.03,North,360,5.0,5.0,94,0.00,,,0.00,Wunderground v.1.15,2013-09-13 11:10:00,
2013-09-13 07:15:00,56.0,54.3,30.03,NNW,328,4.0,13.0,94,0.00,,,0.00,Wunderground v.1.15,2013-09-13 11:15:00,
2013-09-13 07:20:00,55.8,54.1,30.04,NNW,338,5.0,13.0,94,0.00,,,0.00,Wunderground v.1.15,2013-09-13 11:20:00,
2013-09-13 07:30:00,55.8,54.4,30.04,NNW,331,4.0,13.0,95,0.00,,,0.00,Wunderground v.1.15,2013-09-13 11:30:00,
2013-09-13 07:35:00,55.6,54.2,30.04,NNW,335,4.0,13.0,95,0.00,,,0.00,Wunderground v.1.15,2013-09-13 11:35:00,
2013-09-13 07:40:00,55.6,54.2,30.04,NNW,342,5.0,13.0,95,0.00,,,0.00,Wunderground v.1.15,2013-09-13 11:40:00,
2013-09-13 07:45:00,55.4,54.0,30.04,NW,318,5.0,13.0,95,0.00,,,0.00,Wunderground v.1.15,2013-09-13 11:45:00,
2013-09-13 07:50:00,55.3,53.9,30.05,NW,318,6.0,13.0,95,0.00,,,0.00,Wunderground v.1.15,2013-09-13 11:50:00,
2013-09-13 08:00:00,55.3,53.9,30.06,NNW,329,4.0,13.0,95,0.00,,,0.00,Wunderground v.1.15,2013-09-13 12:00:00,
2013-09-13 08:05:00,55.1,53.7,30.06,NNW,334,4.0,13.0,95,0.00,,,0.00,Wunderground v.1.15,2013-09-13 12:05:00,
2013-09-13 08:10:00,54.9,53.5,30.06,NNW,327,5.0,13.0,95,0.00,,,0.00,Wunderground v.1.15,2013-09-13 12:10:00,
2013-09-13 08:15:00,54.7,53.6,30.06,North,350,6.0,13.0,96,0.00,,,0.01,Wunderground v.1.15,2013-09-13 12:15:00,
2013-09-13 08:20:00,54.6,53.5,30.06,NW,325,5.0,13.0,96,0.00,,,0.01,Wunderground v.1.15,2013-09-13 12:20:00,
2013-09-13 08:25:00,54.5,53.4,30.06,NW,317,4.0,13.0,96,0.05,,,0.02,Wunderground v.1.15,2013-09-13 12:25:00,
2013-09-13 08:35:00,54.2,53.1,30.07,NW,305,6.0,13.0,96,0.05,,,0.02,Wunderground v.1.15,2013-09-13 12:35:00,
2013-09-13 08:40:00,54.2,53.1,30.07,NW,311,6.0,13.0,96,0.04,,,0.02,Wunderground v.1.15,2013-09-13 12:40:00,
2013-09-13 08:45:00,54.1,53.0,30.07,NW,319,6.0,13.0,96,0.00,,,0.02,Wunderground v.1.15,2013-09-13 12:45:00,
2013-09-13 08:50:00,54.1,53.0,30.07,NW,319,6.0,6.0,96,0.00,,,0.02,Wunderground v.1.15,2013-09-13 12:50:00,
2013-09-13 08:55:00,54.0,52.9,30.07,NNW,342,6.0,13.0,96,0.00,,,0.02,Wunderground v.1.15,2013-09-13 12:55:00,
2013-09-13 09:05:00,54.1,53.0,30.08,WNW,300,6.0,13.0,96,0.00,,,0.02,Wunderground v.1.15,2013-09-13 13:05:00,
2013-09-13 09:10:00,54.2,53.1,30.08,North,360,6.0,6.0,96,0.00,,,0.02,Wunderground v.1.15,2013-09-13 13:10:00,
2013-09-13 09:15:00,54.2,53.1,30.08,NNW,327,5.0,13.0,96,0.00,,,0.02,Wunderground v.1.15,2013-09-13 13:15:00,
2013-09-13 09:20:00,54.1,53.0,30.08,NNW,327,5.0,13.0,96,0.00,,,0.02,Wunderground v.1.15,2013-09-13 13:20:00,
2013-09-13 09:25:00,54.2,53.1,30.08,NW,311,4.0,13.0,96,0.00,,,0.02,Wunderground v.1.15,2013-09-13 13:25:00,
2013-09-13 09:30:00,54.5,53.4,30.08,NW,313,4.0,13.0,96,0.00,,,0.02,Wunderground v.1.15,2013-09-13 13:30:00,
2013-09-13 09:40:00,53.9,52.5,30.08,NW,317,5.0,13.0,95,0.00,,,0.02,Wunderground v.1.15,2013-09-13 13:40:00,
2013-09-13 09:45:00,53.9,52.8,30.09,NNW,328,6.0,13.0,96,0.00,,,0.02,Wunderground v.1.15,2013-09-13 13:45:00,
2013-09-13 09:50:00,54.0,52.9,30.09,NNW,340,5.0,5.0,96,0.00,,,0.02,Wunderground v.1.15,2013-09-13 13:50:00,
2013-09-13 09:55:00,54.0,52.9,30.09,NNW,327,5.0,7.0,96,0.00,,,0.02,Wunderground v.1.15,2013-09-13 13:55:00,
2013-09-13 10:00:00,54.1,53.0,30.09,NNW,342,6.0,6.0,96,0.00,,,0.02,Wunderground v.1.15,2013-09-13 14:00:00,
2013-09-13 10:05:00,54.1,53.0,30.09,NW,323,6.0,13.0,96,0.00,,,0.02,Wunderground v.1.15,2013-09-13 14:05:00,
2013-09-13 10:10:00,54.4,53.3,30.09,NNW,328,5.0,5.0,96,0.00,,,0.02,Wunderground v.1.15,2013-09-13 14:10:00,
2013-09-13 10:15:00,54.5,53.1,30.09,North,5,5.0,13.0,95,0.00,,,0.02,Wunderground v.1.15,2013-09-13 14:15:00,
2013-09-13 10:20:00,54.4,53.0,30.09,NNW,340,5.0,5.0,95,0.00,,,0.02,Wunderground v.1.15,2013-09-13 14:20:00,
2013-09-13 10:25:00,54.5,53.1,30.09,NNW,342,5.0,6.0,95,0.00,,,0.02,Wunderground v.1.15,2013-09-13 14:25:00,
2013-09-13 10:30:00,54.3,52.9,30.09,NNW,346,5.0,5.0,95,0.00,,,0.02,Wunderground v.1.15,2013-09-13 14:30:00,
2013-09-13 10:40:00,54.3,52.9,30.10,North,351,5.0,13.0,95,0.00,,,0.02,Wunderground v.1.15,2013-09-13 14:40:00,
2013-09-13 10:45:00,54.8,53.4,30.10,NNW,337,5.0,13.0,95,0.00,,,0.02,Wunderground v.1.15,2013-09-13 14:45:00,
2013-09-13 10:50:00,54.9,53.2,30.10,NNE,17,6.0,6.0,94,0.00,,,0.02,Wunderground v.1.15,2013-09-13 14:50:00,
2013-09-13 10:55:00,55.2,53.2,30.10,NNW,338,6.0,9.0,93,0.00,,,0.02,Wunderground v.1.15,2013-09-13 14:55:00,
2013-09-13 11:00:00,55.1,52.8,30.10,North,360,6.0,6.0,92,0.00,,,0.02,Wunderground v.1.15,2013-09-13 15:00:00,
2013-09-13 11:05:00,55.0,52.7,30.10,NNW,331,6.0,7.0,92,0.00,,,0.02,Wunderground v.1.15,2013-09-13 15:05:00,
2013-09-13 11:15:00,54.7,52.4,30.10,North,355,6.0,8.0,92,0.00,,,0.02,Wunderground v.1.15,2013-09-13 15:15:00,
2013-09-13 11:20:00,54.5,52.5,30.11,NNW,327,6.0,6.0,93,0.00,,,0.02,Wunderground v.1.15,2013-09-13 15:20:00,
2013-09-13 11:25:00,54.5,52.5,30.11,NW,323,5.0,13.0,93,0.00,,,0.02,Wunderground v.1.15,2013-09-13 15:25:00,
2013-09-13 11:30:00,54.4,52.4,30.11,NNW,334,4.0,13.0,93,0.00,,,0.02,Wunderground v.1.15,2013-09-13 15:30:00,
2013-09-13 11:35:00,54.8,53.1,30.11,NNW,333,5.0,13.0,94,0.00,,,0.02,Wunderground v.1.15,2013-09-13 15:35:00,
2013-09-13 11:45:00,55.4,53.7,30.11,North,5,4.0,6.0,94,0.00,,,0.02,Wunderground v.1.15,2013-09-13 15:45:00,
2013-09-13 11:50:00,54.8,52.5,30.11,North,355,5.0,5.0,92,0.00,,,0.02,Wunderground v.1.15,2013-09-13 15:50:00,
2013-09-13 11:55:00,54.2,51.9,30.11,NW,325,5.0,13.0,92,0.00,,,0.03,Wunderground v.1.15,2013-09-13 15:55:00,
2013-09-13 12:00:00,54.0,52.0,30.11,NNW,329,4.0,5.0,93,0.00,,,0.03,Wunderground v.1.15,2013-09-13 16:00:00,
2013-09-13 12:10:00,54.0,52.3,30.12,North,5,5.0,5.0,94,0.00,,,0.03,Wunderground v.1.15,2013-09-13 16:10:00,
2013-09-13 12:20:00,53.8,52.1,30.12,North,355,5.0,5.0,94,0.00,,,0.03,Wunderground v.1.15,2013-09-13 16:20:00,
2013-09-13 12:25:00,53.7,51.7,30.12,NNW,348,4.0,5.0,93,0.00,,,0.03,Wunderground v.1.15,2013-09-13 16:25:00,
2013-09-13 12:30:00,53.6,51.9,30.12,NNW,338,5.0,5.0,94,0.00,,,0.03,Wunderground v.1.15,2013-09-13 16:30:00,
2013-09-13 12:35:00,53.1,51.4,30.12,NW,309,6.0,6.0,94,0.00,,,0.03,Wunderground v.1.15,2013-09-13 16:35:00,
2013-09-13 12:40:00,53.4,51.7,30.12,North,355,6.0,6.0,94,0.00,,,0.03,Wunderground v.1.15,2013-09-13 16:40:00,
2013-09-13 12:50:00,53.3,51.6,30.13,North,350,5.0,5.0,94,0.00,,,0.03,Wunderground v.1.15,2013-09-13 16:50:00,
2013-09-13 12:55:00,53.0,51.3,30.13,NW,326,5.0,7.0,94,0.00,,,0.03,Wunderground v.1.15,2013-09-13 16:55:00,
2013-09-13 13:00:00,52.8,51.1,30.13,NW,323,6.0,8.0,94,0.00,,,0.03,Wunderground v.1.15,2013-09-13 17:00:00,
2013-09-13 13:05:00,53.0,51.6,30.13,NNW,333,6.0,12.0,95,0.00,,,0.03,Wunderground v.1.15,2013-09-13 17:05:00,
2013-09-13 13:10:00,53.3,51.9,30.13,NNW,346,5.0,5.0,95,0.00,,,0.03,Wunderground v.1.15,2013-09-13 17:10:00,
2013-09-13 13:15:00,53.5,51.8,30.13,NNW,329,5.0,12.0,94,0.00,,,0.03,Wunderground v.1.15,2013-09-13 17:15:00,
2013-09-13 13:25:00,53.0,51.0,30.14,North,355,7.0,7.0,93,0.00,,,0.03,Wunderground v.1.15,2013-09-13 17:25:00,
2013-09-13 13:30:00,52.8,50.8,30.13,NNW,337,7.0,12.0,93,0.00,,,0.03,Wunderground v.1.15,2013-09-13 17:30:00,
2013-09-13 13:35:00,52.4,50.4,30.14,North,355,7.0,12.0,93,0.00,,,0.03,Wunderground v.1.15,2013-09-13 17:35:00,
2013-09-13 13:40:00,52.2,50.5,30.14,NNW,346,8.0,8.0,94,0.00,,,0.03,Wunderground v.1.15,2013-09-13 17:40:00,
2013-09-13 13:45:00,52.7,51.0,30.13,NW,320,6.0,12.0,94,0.00,,,0.03,Wunderground v.1.15,2013-09-13 17:45:00,
2013-09-13 13:55:00,52.4,50.1,30.13,NNW,331,7.0,12.0,92,0.00,,,0.03,Wunderground v.1.15,2013-09-13 17:55:00,
2013-09-13 14:00:00,52.4,50.1,30.14,NNW,342,8.0,8.0,92,0.00,,,0.03,Wunderground v.1.15,2013-09-13 18:00:00,
2013-09-13 14:05:00,52.5,50.2,30.14,NW,314,7.0,12.0,92,0.00,,,0.03,Wunderground v.1.15,2013-09-13 18:05:00,
2013-09-13 14:10:00,52.4,50.1,30.14,NNW,336,6.0,12.0,92,0.00,,,0.03,Wunderground v.1.15,2013-09-13 18:10:00,
2013-09-13 14:15:00,52.5,50.2,30.14,WNW,302,7.0,12.0,92,0.00,,,0.03,Wunderground v.1.15,2013-09-13 18:15:00,
2013-09-13 14:20:00,52.1,49.8,30.14,NNW,347,7.0,7.0,92,0.00,,,0.03,Wunderground v.1.15,2013-09-13 18:20:00,
2013-09-13 14:30:00,51.9,49.4,30.14,NNW,329,7.0,7.0,91,0.00,,,0.03,Wunderground v.1.15,2013-09-13 18:30:00,
2013-09-13 14:35:00,52.1,49.8,30.14,NW,313,7.0,12.0,92,0.00,,,0.03,Wunderground v.1.15,2013-09-13 18:35:00,
2013-09-13 14:40:00,51.9,49.6,30.14,NW,317,6.0,12.0,92,0.00,,,0.03,Wunderground v.1.15,2013-09-13 18:40:00,
2013-09-13 14:45:00,51.8,49.8,30.14,North,355,6.0,12.0,93,0.00,,,0.03,Wunderground v.1.15,2013-09-13 18:45:00,
2013-09-13 14:50:00,51.7,49.7,30.14,NW,323,6.0,12.0,93,0.00,,,0.03,Wunderground v.1.15,2013-09-13 18:50:00,
2013-09-13 14:55:00,51.6,49.9,30.14,NNW,329,5.0,12.0,94,0.00,,,0.03,Wunderground v.1.15,2013-09-13 18:55:00,
2013-09-13 15:00:00,51.7,50.0,30.14,NW,319,5.0,12.0,94,0.00,,,0.03,Wunderground v.1.15,2013-09-13 19:00:00,
2013-09-13 15:05:00,52.2,50.5,30.14,WNW,301,5.0,12.0,94,0.00,,,0.03,Wunderground v.1.15,2013-09-13 19:05:00,
2013-09-13 15:10:00,52.3,50.3,30.15,NW,319,5.0,12.0,93,0.00,,,0.03,Wunderground v.1.15,2013-09-13 19:10:00,
2013-09-13 15:15:00,51.9,49.6,30.15,North,355,6.0,12.0,92,0.00,,,0.03,Wunderground v.1.15,2013-09-13 19:15:00,
2013-09-13 15:20:00,52.2,50.2,30.15,NNW,327,6.0,6.0,93,0.00,,,0.03,Wunderground v.1.15,2013-09-13 19:20:00,
2013-09-13 15:30:00,52.1,49.6,30.15,NW,306,7.0,12.0,91,0.00,,,0.03,Wunderground v.1.15,2013-09-13 19:30:00,
2013-09-13 15:35:00,51.8,49.3,30.15,NW,325,7.0,12.0,91,0.00,,,0.03,Wunderground v.1.15,2013-09-13 19:35:00,
2013-09-13 15:40:00,51.9,49.4,30.15,NW,326,7.0,7.0,91,0.00,,,0.03,Wunderground v.1.15,2013-09-13 19:40:00,
2013-09-13 15:45:00,51.8,49.3,30.16,NNW,337,8.0,8.0,91,0.00,,,0.03,Wunderground v.1.15,2013-09-13 19:45:00,
2013-09-13 15:50:00,51.7,49.2,30.16,NW,317,8.0,8.0,91,0.00,,,0.03,Wunderground v.1.15,2013-09-13 19:50:00,
2013-09-13 15:55:00,51.7,49.2,30.16,NNW,346,7.0,12.0,91,0.00,,,0.03,Wunderground v.1.15,2013-09-13 19:55:00,
2013-09-13 16:05:00,51.2,48.7,30.16,NNW,328,6.0,12.0,91,0.00,,,0.03,Wunderground v.1.15,2013-09-13 20:05:00,
2013-09-13 16:10:00,51.1,48.9,30.16,NNW,329,6.0,6.0,92,0.00,,,0.03,Wunderground v.1.15,2013-09-13 20:10:00,
2013-09-13 16:15:00,51.2,49.0,30.16,NW,312,6.0,7.0,92,0.00,,,0.03,Wunderground v.1.15,2013-09-13 20:15:00,
2013-09-13 16:20:00,51.3,49.3,30.16,NW,321,5.0,12.0,93,0.00,,,0.03,Wunderground v.1.15,2013-09-13 20:20:00,
2013-09-13 16:25:00,51.3,49.3,30.16,NW,315,5.0,12.0,93,0.00,,,0.03,Wunderground v.1.15,2013-09-13 20:25:00,
2013-09-13 16:35:00,51.2,49.2,30.17,WNW,297,6.0,10.0,93,0.00,,,0.03,Wunderground v.1.15,2013-09-13 20:35:00,
2013-09-13 16:40:00,51.1,49.1,30.17,NW,308,6.0,12.0,93,0.00,,,0.03,Wunderground v.1.15,2013-09-13 20:40:00,
2013-09-13 16:45:00,50.9,48.9,30.17,NW,313,6.0,12.0,93,0.00,,,0.04,Wunderground v.1.15,2013-09-13 20:45:00,
2013-09-13 16:50:00,50.6,48.9,30.17,NW,323,6.0,12.0,94,0.00,,,0.04,Wunderground v.1.15,2013-09-13 20:50:00,
2013-09-13 16:55:00,50.5,48.8,30.18,NNW,331,6.0,12.0,94,0.00,,,0.04,Wunderground v.1.15,2013-09-13 20:55:00,
2013-09-13 17:00:00,50.6,49.2,30.18,NNW,333,5.0,12.0,95,0.00,,,0.04,Wunderground v.1.15,2013-09-13 21:00:00,
2013-09-13 17:10:00,50.3,48.9,30.18,NNW,329,6.0,6.0,95,0.07,,,0.06,Wunderground v.1.15,2013-09-13 21:10:00,
2013-09-13 17:15:00,50.3,48.9,30.18,NW,318,6.0,12.0,95,0.07,,,0.06,Wunderground v.1.15,2013-09-13 21:15:00,
2013-09-13 17:20:00,50.2,48.8,30.18,NW,315,5.0,12.0,95,0.08,,,0.07,Wunderground v.1.15,2013-09-13 21:20:00,
2013-09-13 17:25:00,50.0,48.6,30.18,NW,324,6.0,12.0,95,0.07,,,0.07,Wunderground v.1.15,2013-09-13 21:25:00,
2013-09-13 17:30:00,50.1,49.0,30.19,NNW,331,6.0,12.0,96,0.04,,,0.07,Wunderground v.1.15,2013-09-13 21:30:00,
2013-09-13 17:40:00,50.1,49.0,30.19,NW,306,5.0,5.0,96,0.00,,,0.08,Wunderground v.1.15,2013-09-13 21:40:00,
2013-09-13 17:45:00,50.2,49.1,30.19,NW,305,5.0,12.0,96,0.00,,,0.08,Wunderground v.1.15,2013-09-13 21:45:00,
2013-09-13 17:50:00,50.1,49.0,30.19,NW,311,5.0,12.0,96,0.00,,,0.08,Wunderground v.1.15,2013-09-13 21:50:00,
2013-09-13 17:55:00,50.1,49.0,30.19,WNW,301,5.0,12.0,96,0.00,,,0.08,Wunderground v.1.15,2013-09-13 21:55:00,
2013-09-13 18:00:00,49.9,48.8,30.19,WNW,301,6.0,9.0,96,0.00,,,0.08,Wunderground v.1.15,2013-09-13 22:00:00,
2013-09-13 18:10:00,49.4,48.3,30.19,NW,307,7.0,7.0,96,0.00,,,0.09,Wunderground v.1.15,2013-09-13 22:10:00,
2013-09-13 18:15:00,49.5,48.4,30.20,NW,304,5.0,9.0,96,0.00,,,0.09,Wunderground v.1.15,2013-09-13 22:15:00,
2013-09-13 18:20:00,49.5,48.4,30.20,WNW,288,5.0,5.0,96,0.00,,,0.09,Wunderground v.1.15,2013-09-13 22:20:00,
2013-09-13 18:25:00,49.6,48.5,30.20,WNW,290,5.0,5.0,96,0.00,,,0.09,Wunderground v.1.15,2013-09-13 22:25:00,
2013-09-13 18:30:00,49.6,48.5,30.20,NW,304,4.0,4.0,96,0.04,,,0.10,Wunderground v.1.15,2013-09-13 22:30:00,
2013-09-13 18:35:00,49.5,48.4,30.20,NNW,336,5.0,5.0,96,0.04,,,0.10,Wunderground v.1.15,2013-09-13 22:35:00,
2013-09-13 18:40:00,49.5,48.4,30.20,NW,307,5.0,7.0,96,0.04,,,0.10,Wunderground v.1.15,2013-09-13 22:40:00,
2013-09-13 18:45:00,49.5,48.4,30.20,NW,315,6.0,7.0,96,0.00,,,0.10,Wunderground v.1.15,2013-09-13 22:45:00,
2013-09-13 18:50:00,49.5,48.4,30.20,WNW,296,5.0,5.0,96,0.00,,,0.10,Wunderground v.1.15,2013-09-13 22:50:00,
2013-09-13 18:55:00,49.6,48.5,30.20,WNW,303,4.0,5.0,96,0.00,,,0.10,Wunderground v.1.15,2013-09-13 22:55:00,
2013-09-13 19:00:00,49.6,48.5,30.21,WNW,284,4.0,5.0,96,0.00,,,0.10,Wunderground v.1.15,2013-09-13 23:00:00,
2013-09-13 19:05:00,49.5,48.4,30.20,WNW,302,4.0,10.0,96,0.00,,,0.10,Wunderground v.1.15,2013-09-13 23:05:00,
2013-09-13 19:15:00,49.6,48.5,30.21,WNW,286,5.0,10.0,96,0.00,,,0.10,Wunderground v.1.15,2013-09-13 23:15:00,
2013-09-13 19:20:00,49.6,48.5,30.21,NW,311,4.0,4.0,96,0.00,,,0.10,Wunderground v.1.15,2013-09-13 23:20:00,
2013-09-13 19:25:00,49.6,48.5,30.21,NW,311,4.0,10.0,96,0.00,,,0.10,Wunderground v.1.15,2013-09-13 23:25:00,
2013-09-13 19:30:00,49.7,48.6,30.21,West,275,4.0,10.0,96,0.00,,,0.10,Wunderground v.1.15,2013-09-13 23:30:00,
2013-09-13 19:35:00,49.6,48.5,30.22,NW,309,5.0,10.0,96,0.00,,,0.10,Wunderground v.1.15,2013-09-13 23:35:00,
2013-09-13 19:40:00,49.6,48.5,30.22,WNW,300,5.0,5.0,96,0.00,,,0.10,Wunderground v.1.15,2013-09-13 23:40:00,
2013-09-13 19:50:00,49.6,48.5,30.23,NW,311,4.0,4.0,96,0.00,,,0.10,Wunderground v.1.15,2013-09-13 23:50:00,
2013-09-13 19:55:00,49.6,48.5,30.23,NW,311,5.0,6.0,96,0.00,,,0.10,Wunderground v.1.15,2013-09-13 23:55:00,
2013-09-13 20:00:00,49.6,48.5,30.23,NW,314,5.0,5.0,96,0.00,,,0.10,Wunderground v.1.15,2013-09-14 00:00:00,
2013-09-13 20:05:00,49.6,48.5,30.23,NW,323,4.0,10.0,96,0.00,,,0.10,Wunderground v.1.15,2013-09-14 00:05:00,
2013-09-13 20:10:00,49.6,48.5,30.24,NW,305,4.0,10.0,96,0.00,,,0.10,Wunderground v.1.15,2013-09-14 00:10:00,
2013-09-13 20:20:00,49.5,48.4,30.24,NW,323,4.0,10.0,96,0.00,,,0.10,Wunderground v.1.15,2013-09-14 00:20:00,
2013-09-13 20:25:00,49.5,48.4,30.24,WNW,293,4.0,10.0,96,0.00,,,0.11,Wunderground v.1.15,2013-09-14 00:25:00,
2013-09-13 20:30:00,49.3,48.2,30.24,WNW,294,4.0,4.0,96,0.00,,,0.11,Wunderground v.1.15,2013-09-14 00:30:00,
2013-09-13 20:35:00,49.3,48.2,30.24,WNW,294,3.0,10.0,96,0.00,,,0.11,Wunderground v.1.15,2013-09-14 00:35:00,
2013-09-13 20:40:00,49.4,48.6,30.24,WNW,294,3.0,10.0,97,0.00,,,0.11,Wunderground v.1.15,2013-09-14 00:40:00,
2013-09-13 20:45:00,49.4,48.3,30.24,WNW,294,3.0,10.0,96,0.00,,,0.11,Wunderground v.1.15,2013-09-14 00:45:00,
2013-09-13 20:55:00,49.4,48.3,30.24,WNW,294,3.0,10.0,96,0.00,,,0.11,Wunderground v.1.15,2013-09-14 00:55:00,
2013-09-13 21:00:00,49.4,48.6,30.25,WNW,294,3.0,10.0,97,0.00,,,0.11,Wunderground v.1.15,2013-09-14 01:00:00,
2013-09-13 21:05:00,49.5,48.7,30.25,WNW,294,3.0,10.0,97,0.00,,,0.11,Wunderground v.1.15,2013-09-14 01:05:00,
2013-09-13 21:10:00,49.5,48.7,30.25,WNW,301,3.0,10.0,97,0.00,,,0.11,Wunderground v.1.15,2013-09-14 01:10:00,
2013-09-13 21:15:00,49.5,48.7,30.25,WNW,293,4.0,10.0,97,0.00,,,0.11,Wunderground v.1.15,2013-09-14 01:15:00,
2013-09-13 21:25:00,49.6,48.8,30.25,WNW,286,4.0,10.0,97,0.00,,,0.11,Wunderground v.1.15,2013-09-14 01:25:00,
2013-09-13 21:30:00,49.6,48.8,30.25,WNW,298,5.0,10.0,97,0.00,,,0.11,Wunderground v.1.15,2013-09-14 01:30:00,
2013-09-13 21:35:00,49.6,48.8,30.25,WNW,296,5.0,10.0,97,0.00,,,0.11,Wunderground v.1.15,2013-09-14 01:35:00,
2013-09-13 21:40:00,49.6,48.8,30.25,WNW,300,4.0,4.0,97,0.00,,,0.11,Wunderground v.1.15,2013-09-14 01:40:00,
2013-09-13 21:45:00,49.7,48.9,30.25,WNW,303,4.0,10.0,97,0.00,,,0.11,Wunderground v.1.15,2013-09-14 01:45:00,
2013-09-13 21:50:00,49.6,48.8,30.25,NW,316,4.0,10.0,97,0.00,,,0.11,Wunderground v.1.15,2013-09-14 01:50:00,
2013-09-13 22:00:00,49.5,48.7,30.25,NW,313,4.0,10.0,97,0.00,,,0.11,Wunderground v.1.15,2013-09-14 02:00:00,
2013-09-13 22:05:00,49.4,48.6,30.25,NW,306,4.0,10.0,97,0.00,,,0.11,Wunderground v.1.15,2013-09-14 02:05:00,
2013-09-13 22:10:00,49.5,48.7,30.25,NW,306,4.0,4.0,97,0.00,,,0.11,Wunderground v.1.15,2013-09-14 02:10:00,
2013-09-13 22:15:00,49.4,48.6,30.25,NW,305,3.0,10.0,97,0.00,,,0.11,Wunderground v.1.15,2013-09-14 02:15:00,
2013-09-13 22:20:00,49.5,48.7,30.26,NW,305,3.0,3.0,97,0.00,,,0.11,Wunderground v.1.15,2013-09-14 02:20:00,
2013-09-13 22:25:00,49.5,48.7,30.26,NW,305,3.0,10.0,97,0.00,,,0.11,Wunderground v.1.15,2013-09-14 02:25:00,
2013-09-13 22:30:00,49.5,48.7,30.25,WNW,293,3.0,3.0,97,0.00,,,0.11,Wunderground v.1.15,2013-09-14 02:30:00,
2013-09-13 22:35:00,49.5,48.7,30.26,WNW,293,2.0,10.0,97,0.00,,,0.11,Wunderground v.1.15,2013-09-14 02:35:00,
2013-09-13 22:40:00,49.5,48.7,30.26,WNW,293,2.0,10.0,97,0.00,,,0.11,Wunderground v.1.15,2013-09-14 02:40:00,
2013-09-13 22:45:00,49.5,48.7,30.26,NW,309,3.0,10.0,97,0.00,,,0.11,Wunderground v.1.15,2013-09-14 02:45:00,
2013-09-13 22:50:00,49.4,48.6,30.26,WNW,287,4.0,10.0,97,0.00,,,0.11,Wunderground v.1.15,2013-09-14 02:50:00,
2013-09-13 23:00:00,49.3,48.2,30.26,NW,304,5.0,5.0,96,0.00,,,0.11,Wunderground v.1.15,2013-09-14 03:00:00,
2013-09-13 23:05:00,49.4,48.3,30.26,WNW,288,5.0,10.0,96,0.00,,,0.11,Wunderground v.1.15,2013-09-14 03:05:00,
2013-09-13 23:10:00,49.5,48.7,30.26,WNW,296,4.0,10.0,97,0.00,,,0.11,Wunderground v.1.15,2013-09-14 03:10:00,
2013-09-13 23:15:00,49.6,48.8,30.26,NNW,327,4.0,10.0,97,0.00,,,0.11,Wunderground v.1.15,2013-09-14 03:15:00,
2013-09-13 23:20:00,49.4,48.6,30.26,NW,314,4.0,4.0,97,0.00,,,0.11,Wunderground v.1.15,2013-09-14 03:20:00,
2013-09-13 23:25:00,49.4,48.6,30.26,NW,319,4.0,10.0,97,0.00,,,0.11,Wunderground v.1.15,2013-09-14 03:25:00,
2013-09-13 23:35:00,49.4,48.3,30.26,NW,323,5.0,5.0,96,0.00,,,0.11,Wunderground v.1.15,2013-09-14 03:35:00,
2013-09-13 23:40:00,49.4,48.6,30.26,NNW,328,5.0,10.0,97,0.00,,,0.11,Wunderground v.1.15,2013-09-14 03:40:00,
2013-09-13 23:45:00,49.4,48.6,30.26,NNW,329,5.0,10.0,97,0.00,,,0.11,Wunderground v.1.15,2013-09-14 03:45:00,
2013-09-13 23:50:00,49.5,48.7,30.26,NW,323,4.0,10.0,97,0.00,,,0.11,Wunderground v.1.15,2013-09-14 03:50:00,
2013-09-13 23:55:00,49.5,48.7,30.26,NW,311,4.0,10.0,97,0.00,,,0.11,Wunderground v.1.15,2013-09-14 03:55:00,